Other Public Products
Issued by NWS Grand Forks, ND

Home | Current Version | Previous Version | Graphics & Text | Print | Product List | Glossary On
Versions: 1 2 3 4 5 6 7 8 9 10 11 12 13 14 15 16 17 18 19 20 21 22 23 24 25 26 27 28 29 30 31 32 33 34 35 36 37 38 39 40 41 42 43 44 45 46 47 48 49 50
000
FPUS83 KFGF 172010
OPUFGF
PRAIRIE TO PINES WEATHER ROUNDUP
NATIONAL WEATHER SERVICE EASTERN NORTH DAKOTA/GRAND FORKS ND
200 PM CST TUE JAN 17 2017

 **SATELLITE DATA USED TO AUGMENT SKY COVER AT AUTOMATED STATIONS**
 *****  WEATHER ACROSS EASTERN NORTH DAKOTA  *****

CITY           SKY/WX    TMP DP  RH WIND       PRES   REMARKS
GRAND FORKS    FAIR      21  14  74 S15       29.83F WCI   8
GRAND FORKS AF FAIR      29  20  70 S13       29.81F WCI  18
GRAND CITY NWS NOT AVBL
BUXTON         NOT AVBL
DEVILS LAKE    FAIR      27  18  69 SW17      29.75F WCI  14
FARGO          FAIR      22  16  78 S9        29.91F WCI  12
WAHPETON ARPT  FAIR      21  16  79 S8        29.95F WCI  12
$$

 *****  WEATHER ACROSS CENTRAL AND WESTERN NORTH DAKOTA  *****

CITY           SKY/WX    TMP DP  RH WIND       PRES   REMARKS
JAMESTOWN      FAIR      30  23  75 S12       29.83F WCI  20
BISMARCK       FAIR      22  14  71 E3        29.83F
MINOT          FAIR      29  17  61 S20G30    29.67F WCI  16
MINOT AFB      NOT AVBL
GARRISON         N/A     27  17  66 SW12      29.74F WCI  17
WILLISTON      FAIR      27  16  63 SW13      29.71F WCI  16
DICKINSON      FAIR      29  19  66 W20       29.74F WCI  16
HETTINGER      FAIR      31  18  58 S3        29.83F
$$

 *****  OTHER OBSERVATIONS NORTHEAST NORTH DAKOTA  *****

CITY           SKY/WX    TMP DP  RH WIND       PRES   REMARKS
WALHALLA       NOT AVBL
LANGDON        NOT AVBL
CAVALIER         N/A     27  19  74 S16       29.74F WCI  14
GRAFTON        FAIR      19  16  86 S16       29.81F WCI   5
CANDO          NOT AVBL
FORT TOTTEN      N/A     28  19  67 S9        29.95S WCI  19
ROLLA            N/A    N/A N/A N/A MISG        N/A
RUGBY            N/A     25  18  74 SW16      29.70F WCI  12
 ***** THE ABOVE OBSERVATIONS ARE NON NWS ARE NOT QUALITY
        CONTROLLED AND MAY MIS-REPORT RAIN FOR SNOW...
$$

 *****  OTHER OBSERVATIONS SOUTHEAST NORTH DAKOTA *****

CITY           SKY/WX    TMP DP  RH WIND       PRES   REMARKS
COOPERSTOWN    FAIR      23  19  86 SW13      29.83F WCI  11
VALLEY CITY    MIX PCPN  25  23  93 SW15      29.86F WCI  12
OAKES          NOT AVBL
GWINNER        FAIR      23  19  86 S15       29.90F WCI  10
SHEYENNE NWR     N/A     25  17  70 SW9       29.95S WCI  15
BUFFALO        NOT AVBL
WYNDMERE       NOT AVBL
 ***** THE ABOVE OBSERVATIONS ARE NON NWS ARE NOT QUALITY
       CONTROLLED AND MAY MIS-REPORT RAIN FOR SNOW...
$$

  *****  WEATHER ACROSS NORTHERN MINNESOTA  *****

CITY           SKY/WX    TMP DP  RH WIND       PRES   REMARKS
FLAG ISLAND    FAIR      14  10  85 S13       29.79F WCI   0
WARROAD        FAIR      27  19  74 S3        29.80F
ROSEAU         FAIR      23  18  80 S10       29.80F WCI  12
HALLOCK        FAIR      18  12  79 S15       29.78F WCI   3
THF RVR FALLS  FAIR      22  16  78 S10       29.85F WCI  11
HALSTAD        NOT AVBL
FOSSTON        FAIR      23  16  74 S12       29.86F HAZE    WCI  12
BAUDETTE       FAIR      26  15  63 S8        29.80F WCI  18
WASKISH        FAIR      25  16  68 W3        29.85F
CROOKSTON      FAIR      16  12  86 S14       29.87F WCI   1
$$
  *****  WEATHER ACROSS CENTRAL AND WEST MINNESOTA  *****

CITY           SKY/WX    TMP DP  RH WIND       PRES   REMARKS
BEMIDJI        FAIR      32  19  59 SW5       29.86F
PARK RAPIDS    FAIR      26  17  68 SW6       29.88F WCI  19
WADENA         FAIR      25  16  68 SW6       29.91F WCI  18
DETROIT LAKES  FAIR      27  21  80 SW8       29.91S WCI  18
MOORHEAD       FAIR      18  12  79 S9        29.93F WCI   6
FERGUS FALLS   FAIR      16  12  86 S5        29.99F WCI   9
ELBOW LAKE     FAIR      16  15  94 SE7       29.94F FOG     WCI   7
MORRIS MN      FAIR      25  18  74 S5        29.95F WCI  19
STAPLES        FAIR      28  16  59 SW3       29.92F
WHEATON        FAIR      28  21  74 S8        29.98S WCI  20
$$
  *****  WEATHER ELSEWHERE ACROSS MINNESOTA  *****

CITY           SKY/WX    TMP DP  RH WIND       PRES   REMARKS
DULUTH         FAIR      34  26  72 W9        29.89F
INTRNTL FALLS  FAIR      29  15  56 VRB5      29.83F WCI  24
ELY            FAIR      34  23  64 SW3       29.87F
CLOQUET        FAIR      36  27  69 CALM      29.89F
BRAINERD       FAIR      28  16  60 W3        29.92F
HIBBING        FAIR      32  17  54 SW5       29.88F
ALEXANDRIA     FAIR      23  15  71 SW7       29.94S WCI  15
SAINT CLOUD    FAIR      30  27  88 SW7       29.95F WCI  23
MINNEAPOLIS    CLOUDY    35  29  78 NW10      29.97R
$$

  *****  WEATHER ACROSS SOUTH DAKOTA  *****

CITY           SKY/WX    TMP DP  RH WIND       PRES   REMARKS
SIOUX FALLS    FAIR      30  22  72 W8        30.01F WCI  22
BROOKINGS      FAIR      26  20  77 W8        29.97F WCI  18
WATERTOWN      FAIR      19  16  88 SW7       29.95F WCI  10
HURON          FAIR      26  18  71 S7        29.99F WCI  18
SISSETON         N/A     28  23  81 S7        29.93F WCI  21
ABERDEEN       FAIR      18  10  71 S12       29.96F WCI   5
MITCHELL       FAIR      34  24  67 W6        30.02F
PIERRE         FAIR      23  15  71 S6        29.93F WCI  16
MOBRIDGE       FAIR      18  10  71 SE12      29.87F WCI   5
RAPID CITY     FAIR      31  20  63 CALM      29.88F
$$

  *****  SOME WEATHER IN NEARBY STATES *****

CITY           SKY/WX    TMP DP  RH WIND       PRES   REMARKS
GLASGOW MT     FAIR      30  21  69 SE6       29.70F WCI  24
GREAT FALLS MT FAIR      41  22  46 MISG      29.81F
CHEYENNE WY    FAIR      50   3  14 W7        29.97F
SCOTTSBLUFF NE FAIR      43  21  41 NW7       29.97F
OMAHA NE       CLOUDY    31  26  82 W9        30.07S FOG     WCI  23
DES MOINES IA  CLOUDY    36  33  89 W12       30.01S
DAVENPORT IA   CLOUDY    35  34  96 W15       29.94R FOG
CHICAGO IL     CLOUDY    38  36  92 W12       29.86R
EAU CLAIRE WI  CLOUDY    37  35  92 CALM      29.89F
LA CROSSE WI   LGT SNOW  35  33  92 NW7       29.90S FOG
$$

  *****  SOME NATIONAL WEATHER *****

CITY           SKY/WX    TMP DP  RH WIND       PRES   REMARKS
LA GUARDIA NY  LGT RAIN  41  35  79 E8        30.11F
RALEIGH NC     CLOUDY    60  53  77 SW9       30.13F
ATLANTA GA     PTSUNNY   72  56  57 SW15G22   30.14S
NEW ORLEANS LA PTSUNNY   78  63  59 S13       30.10F
OKLAHOMA CITY  FAIR      52  30  43 NW12      30.12F
ALBUQUERQUE NM FAIR      48  35  60 W5        30.12F
SALT LAKE CITY FAIR      30  19  63 S5        30.26F
LOS ANGELES CA FAIR      64  35  34 CALM      30.09F
BOISE ID       FAIR      12   4  70 W5        30.32F WCI   4
SEATTLE WA     LGT RAIN  46  36  68 E6        29.74F
$$

*** WEATHER ACROSS MANITOBA...SASKATCHEWAN AND ONTARIO ***
                ***ONTARIO***

CITY           SKY/WX    TMP DP  RH WIND       PRES   REMARKS
GERALDTON      MOSUNNY   30  25  80 SW8       29.85F WCI  23
THUNDER BAY    MOSUNNY   34  27  75 CALM      29.89F
SIOUX LOOKOUT  CLOUDY    28  19  69 S7        29.76F WCI  21
TORONTO        LGT RAIN  34  34 100 E9        29.81F FOG
BIG TROUT LK   SUNNY     27  21  80 S9        29.53F WCI  17
PICKLE LAKE    CLOUDY    25  19  80 SW9       29.70F WCI  15
DRYDEN         SUNNY     28  19  69 S13G18    29.75F WCI  18
KENORA         PTSUNNY   23  14  68 S14       29.74F WCI  11
$$
                *** MANITOBA***

CITY           SKY/WX    TMP DP  RH WIND       PRES   REMARKS
BRANDON        CLOUDY    27  18  69 SW21G28   29.59F WCI  13
DAUPHIN        SUNNY     32  19  59 SW17G24   29.49S WCI  21
ISLAND LAKE    PTSUNNY   37  25  60 SW20G26   29.35F
PILOT MOUND      N/A     23  16  74 SW20        N/A  WCI   8
THE PAS        PTSUNNY   39  25  56 W17G24    29.29S
THOMPSON       CLOUDY    34  25  69 SW14G22   29.14F WCI  24
WINNIPEG       PTSUNNY   21  16  79 S21       29.68F WCI   6
LYNN LAKE      CLOUDY    36  30  80 W13G22    29.09R
CHURCHILL      FRZ RAIN  30  27  86 SW13G18   29.02F WCI  20
GILLAM         FRZ RAIN  34  25  69 SW12G20   29.15F
$$
                ***SASKATCHEWAN***

CITY           SKY/WX    TMP DP  RH WIND       PRES   REMARKS
ESTEVAN        PTSUNNY   27  19  74 SW18      29.60F WCI  13
KINDERSLEY     PTSUNNY   37  32  81 S10       29.47F
LLOYDMINSTER   PTSUNNY   41  32  70 SW10      29.40R
PRINCE ALBERT  PTSUNNY   36  25  64 SW6       29.37F
REGINA         PTSUNNY   37  30  75 W18       29.51F
YORKTON        PTSUNNY   34  23  64 SW13      29.46F WCC1F1C2F2C3F3C4F4C5F5C6F6C7F7C8F8C9F9CaFaCbFbCcFcCdFdCe!



USA.gov is the U.S. government's official web portal to all federal, state and local government web resources and services.